Regional Weather Roundup
Issued by NWS Memphis, TN

Home | Current Version | Previous Version | Text Only | Print | Product List | Glossary On
Versions: 1 2 3 4 5 6 7 8 9 10 11 12 13 14 15 16 17 18 19 20 21 22 23 24 25 26 27 28 29 30 31 32 33 34 35 36 37 38 39 40 41 42 43 44 45 46 47 48 49 50
000
ASUS44 KMEG 291100
RWRMEG
MEMPHIS CWA HOURLY WEATHER ROUNDUP
NATIONAL WEATHER SERVICE MEMPHIS TN
600 AM CDT FRI AUG 29 2014

...WEST TENNESSEE...

CITY           SKY/WX    TMP DP  RH WIND       PRES   REMARKS
MEMPHIS INTL   PTCLDY    74  67  78 S3        29.96S
NWS MEMPHIS      N/A     73 N/A N/A MISG        N/A
JACKSON        CLEAR     71  68  90 CALM      29.97S FOG
SAVANNAH       PTCLDY    68  68 100 CALM      30.00R
DYERSBURG      CLEAR     72  63  73 CALM      29.97S
PARIS          CLEAR     70  68  94 SE7       29.99R


...EASTERN ARKANSAS...

CITY           SKY/WX    TMP DP  RH WIND       PRES   REMARKS
JONESBORO      CLEAR     71  70  96 CALM      29.94S
WEST MEMPHIS   CLEAR     70  70 100 SE5       29.94S
BATESVILLE     CLEAR     66  63  88 CALM      29.95R
WALNUT RIDGE   CLEAR     72 -17   3 CALM      29.94S
BLYTHEVILLE    CLEAR     74  72  93 S3        29.95S
STUTTGART      CLEAR     73  66  78 S5        29.96R
PINE BLUFF     MOCLDY    70  68  93 CALM      29.95R
MONTICELLO     MOCLDY    75  71  87 CALM      29.95R


...NORTH MISSISSIPPI...

CITY           SKY/WX    TMP DP  RH WIND       PRES   REMARKS
TUPELO         PTCLDY    70  66  87 CALM      29.98S
OLIVE BRANCH   CLEAR     70  70 100 CALM      29.97S
GREENWOOD      MOCLDY    69  67  93 CALM      29.96S
COLUMBUS       PTCLDY    69  64  84 E1        29.99R
STARKVILLE     FAIR      68  64  88 CALM      29.99R
GOLDEN TRIANGL CLEAR     72  64  78 CALM      30.00R


...SOUTHEAST MISSOURI...

CITY           SKY/WX    TMP DP  RH WIND       PRES   REMARKS
WEST PLAINS    CLEAR     65  62  90 CALM      29.98S
POPLAR BLUFF   MOCLDY    72  68  87 CALM      29.95R FOG
CAPE GIRARDEAU CLEAR     69  67  93 CALM      29.96R FOG


...NORTHWEST ALABAMA...

CITY           SKY/WX    TMP DP  RH WIND       PRES   REMARKS
MUSCLE SHOALS  CLEAR     66  62  87 CALM      30.02R


...MIDDLE TENNESSEE...

CITY           SKY/WX    TMP DP  RH WIND       PRES   REMARKS
NASHVILLE      PTCLDY    71  70  96 SE5       30.02R
CLARKSVILLE    CLEAR     71  69  93 SE3       29.99S FOG


...WESTERN KENTUCKY...

CITY           SKY/WX    TMP DP  RH WIND       PRES   REMARKS
PADUCAH        CLEAR     72  70  93 E3        29.96S FOG
FORT CAMPBELL  CLEAR     72  72 100 SE3       29.99S


...CENTRAL ARKANSAS...

CITY           SKY/WX    TMP DP  RH WIND       PRES   REMARKS
LITTLE ROCK    PTCLDY    73  67  81 SE3       29.94S


SKY/WX REPORTED AS FAIR MEANS FEW OR NO CLOUDS BELOW
12 THOUSAND FEET.



USA.gov is the U.S. government's official web portal to all federal, state and local government web resources and services.